"Pseudo-MPEC" for 2016 HO3

Created 2016 May 19 12:26:28 UT using Find_Orb

Astrometry:
     K16H03O  C2011 04 22.52797 14 40 26.19 +30 22 01.9          21.7 R      F51
     K16H03O  C2011 04 22.53921 14 40 23.07 +30 21 56.1          21.6 R      F51
     K16H03O  C2012 04 26.47052 14 12 02.27 +30 01 17.0          20.8 R      F51
     K16H03O  C2012 04 26.49317 14 11 55.26 +30 00 49.7          20.9 R      F51
     K16H03O  C2013 04 20.49763 14 28 50.16 +32 18 50.5          20.7 R      F51
     K16H03O  C2013 04 20.50841 14 28 47.09 +32 18 44.6          20.7 R      F51
     K16H03O  C2013 04 20.51836 14 28 44.26 +32 18 39.0          21.0 R      F51
     K16H03O  C2013 04 20.52796 14 28 41.51 +32 18 33.5          20.7 R      F51
     K16H03O  C2014 05 06.41527 13 05 52.20 +26 24 42.6          20.4 R      F51
     K16H03O  C2014 05 06.45228 13 05 42.21 +26 23 04.9         x20.4 R      F51
     K16H03O  C2015 04 10.44115 14 42 47.40 +35 29 29.2          22.4 R      F51
     K16H03O  C2015 04 10.45413 14 42 44.28 +35 29 33.8          21.6 R      F51
     K16H03O  C2016 04 27.31228 13 10 59.828+33 02 34.95         21.5 wL~1s42F51
     K16H03O  C2016 04 27.33551 13 10 53.320+33 01 51.40         21.6 wL~1s42F51
     K16H03O  C2016 04 27.34720 13 10 50.033+33 01 29.30         21.4 wL~1s42F51
     K16H03O KC2016 04 28.02254 13 07 58.84 +32 38 28.2                q~1s42J95
     K16H03O KC2016 04 28.03107 13 07 56.54 +32 38 10.4                q~1s42J95
     K16H03O KC2016 04 28.04250 13 07 53.64 +32 37 46.0         x20.7 Rq~1s42J95
     K16H03O _C2016 04 28.40259413 06 25.473+32 26 07.00         20.9 Rt~1s42568
     K16H03O _C2016 04 28.40363113 06 25.182+32 26 04.84         20.8 Rt~1s42568
     K16H03O _C2016 04 28.40466613 06 24.901+32 26 02.64         21.0 Rt~1s42568
     K16H03O KC2016 04 29.34672 13 02 33.32 +31 52 27.9         x21.8 Ro~1s42291
     K16H03O KC2016 04 29.34984 13 02 32.48 +31 52 21.1         x21.2 Ro~1s42291
     K16H03O KC2016 04 29.35295 13 02 31.71 +31 52 14.0         x21.1 Ro~1s42291
     K16H03O KC2016 04 29.88260 13 00 28.40 +31 32 32.5         x      q~1s42J95
     K16H03O KC2016 04 29.91975 13 00 18.82 +31 31 11.2         x21.4 Rq~1s42J95
     K16H03O  C2016 05 03.36008412 47 12.389+29 14 43.99         21.1 R      568
     K16H03O  C2016 05 03.36095012 47 12.176+29 14 41.83         21.1 R      568
     K16H03O  C2016 05 03.36217412 47 11.871+29 14 38.66         21.1 R      568
     K16H03O  C2016 05 03.36320012 47 11.619+29 14 36.06         21.1 R      568
     P10vmsp  C2016 05 04.25621 12 44 03.053+28 36 05.88         21.4 w      F51
     P10vmsp  C2016 05 04.26693 12 44 00.508+28 35 38.63         21.5 w      F51
     K16H03O  C2016 05 04.36811112 43 36.213+28 31 17.91         21.7 R      568
     K16H03O  C2016 05 04.37009412 43 35.737+28 31 12.59         21.1 R      568
     K16H03O  C2016 05 04.37185312 43 35.305+28 31 07.89         21.0 R      568
     K16H03O  C2016 05 04.37384512 43 34.818+28 31 02.54         21.1 R      568
     K16H03O  C2016 05 05.37021612 40 08.456+27 46 48.44         21.0 R      568
     K16H03O  C2016 05 05.37095312 40 08.285+27 46 46.52         20.9 R      568
     K16H03O  C2016 05 06.16638 12 37 30.80 +27 10 22.0         x21.7 Ro~1s42926
     K16H03O  C2016 05 06.17183 12 37 29.55 +27 10 07.2          20.7 Ro~1s42926
     K16H03O "C2016 05 06.26279112 37 08.88 +27 05 53.5          20.6 Rt~1s42705
     K16H03O "C2016 05 06.26380412 37 08.66 +27 05 50.6          20.9 Rt~1s42705
     K16H03O "C2016 05 06.26481612 37 08.39 +27 05 47.7          20.7 Rt~1s42705
     K16H03O  C2016 05 10.29655900 00       +00 00      Horizon !21.4 R      568
     K16H03O  C2016 05 10.29829412 24 55.992+23 52 20.70         20.9 R      568
     K16H03O  C2016 05 10.30185512 24 55.293+23 52 10.10         21.9 R      568
     K16H03O  C2016 05 10.30372312 24 54.925+23 52 04.54         22.2 R      568
     K16H03O  C2016 05 11.35266012 22 02.310+22 59 29.53         22.9 R      568
     K16H03O  C2016 05 11.35367612 22 02.132+22 59 26.46         22.7 R      568
     K16H03O  C2016 05 11.35490712 22 01.897+22 59 22.65         21.7 R      568
     K16H03O  C2016 05 11.35653012 22 01.595+22 59 17.58         21.2 R      568
     K16H03O  C2016 05 17.30039112 08 21.261+17 51 17.63         22.5 R      568
     K16H03O  C2016 05 17.30265712 08 20.935+17 51 10.33         21.9 R      568
     K16H03O  C2016 05 17.30460212 08 20.662+17 51 04.34         21.9 R      568
     K16H03O  C2016 05 18.29980712 06 26.330+16 58 30.82         21.6 R      568
     K16H03O  C2016 05 18.30380712 06 25.784+16 58 17.98         21.8 R      568
     K16H03O  C2016 05 18.30779212 06 25.240+16 58 05.39         22.3 R      568
     K16H03O  C2016 05 18.31207812 06 24.639+16 57 51.59         21.4 R      568
     K16H03O  C2016 05 18.31615312 06 24.085+16 57 38.66         21.7 R      568
     K16H03O  C2016 05 18.32010612 06 23.532+16 57 25.78         21.3 R      568
     K16H03O  C2016 05 18.32412612 06 22.992+16 57 13.04         22.2 R      568
     K16H03O  C2016 05 18.32811812 06 22.444+16 57 00.23         22.6 R      568
     K16H03O  C2016 05 18.33209712 06 21.904+16 56 47.53         21.4 R      568
     K16H03O  C2016 05 18.33612612 06 21.356+16 56 34.48         21.9 R      568

Station data:
(291) LPL/Spacewatch II (N31.9617 W111.5991)  US/Arizona.  1.8-m f/2.7
    reflector + CCD.
(568) Mauna Kea (N19.8262 W155.4722)  US/Hawaii.   Observers D. Hung, D.
    Fohring, Y. Ramanjooloo.  Measurer D. J. Tholen.  2.24-m University of
    Hawaii reflector.
(705) Apache Point (N32.78062 W105.82058)  US/New Mexico.  3.5-m reflector.
(926) Tenagra II Observatory, Nogales (N31.4621 W110.8791)  US/Arizona.  
    Observers M. Schwartz, P. R. Holvorcem.  0.41-m f/3.75 astrograph + CCD.
(F51) Pan-STARRS 1, Haleakala (N20.70733 W156.25591)  US/Hawaii.   Observers
    N. Primak, A. Schultz, T. Goggia, M. Willman.  Measurer P. Vereš.  1.8-m
    Ritchey-Chrétien + CCD.
(J95) Great Shefford (N51.47502 W1.44700)  UK.   Observer P. Birtwhistle. 
    0.30-m f/6.3 Schmidt-Cassegrain + CCD.

Orbital elements:  2016 HO3
   Perihelion 2016 Oct 2.611738 +/- 0.000241 TT = 14:40:54 (JD 2457664.111738)
Epoch 2016 May  6.0 TT = JDT 2457514.5   Earth MOID: 0.0346   Find_Orb
M 212.74947 +/- 0.00023
n   0.98421776 +/- 1.72e-8          Peri.  307.37219 +/- 0.00014
a   1.00094124 +/- 1.17e-8          Node    66.52304 +/- 0.00010
e   0.1042281 +/- 1.19e-6           Incl.    7.77263 +/- 0.00008
P   1.00/365.77d           H 24.1   G  0.15   U  1.0  
q 0.89661495 +/- 1.18e-6    Q 1.10526753 +/- 1.2e-6
55 of 64 observations 2011 Apr. 22-2016 May 18; mean residual 0".148
Residuals in arcseconds: 
110422 F51 .059- .163-    160429 291(.665- .466+)   160510 568 .054+ .239+    
110422 F51 .097+ .100+    160429 291(.021- .459+)   160510 568 959µ+ .216+    
120426 F51 .134+ .015+    160429 J95(1.00+ .482-)   160510 568 .045- .210+    
120426 F51 .433- .058+    160429 J95(1.24+ .355-)   160511 568 .198- .083-    
130420 F51 .180+ .060+    160503 568 .068+ .027+    160511 568 .044- .036-    
130420 F51 .217+ .034+    160503 568 .085+ .082+    160511 568 .125- .069-    
130420 F51 .224+ 649µ-    160503 568 .057+ .044+    160511 568 .125- .156-    
130420 F51 .098- 2.4m-    160503 568 .081+ .070+    160517 568 .034- .050+    
140506 F51 .165+ .130+    160504 F51 4.1m+ .215+    160517 568 .021- .052-    
140506 F51(.243+ .456+)   160504 F51 .072- 3.4m-    160517 568 .086+ .139+    
150410 F51 .034- .433+    160504 568 .188+ .191+    160518 568 .086- .013+    
150410 F51 .325- .266+    160504 568 .188+ .135+    160518 568 .022- .078-    
160427 F51 .140+ .061-    160504 568 .058+ .108+    160518 568 .034+ .044+    
160427 F51 .103+ .110-    160504 568 .061- .055+    160518 568 .143- .072-    
160427 F51 .086+ .039-    160505 568 .105+ .060+    160518 568 .071- .020+    
160428 J95 .091+ .143-    160505 568 .110+ .157+    160518 568 .234- .218-    
160428 J95 .257- .088-    160506 926(.767+ .065-)   160518 568 .091- .090-    
160428 J95(1.48+ .463-)   160506 926 .341+ .073-    160518 568 .129- .111-    
160428 568 9.3m- .241-    160506 705 .312+ .118+    160518 568 .090- .054-    
160428 568 .058- .219-    160506 705 .364+ .082+    160518 568 .082- .176-    
160428 568 .013+ .239-    160506 705 .255- .045+    
160429 291(.466- .161+)   160510 568(174d+  24d-)   

Ephemerides (geocentric):
Date (UTC)   RA              Dec         delta   r     elong  mag " sig PA
---- -- --  ------------   ------------  ------ ------ -----  --- ---- ---
2016 05 20  12 03 25.565   +15 28 34.77  .14088 1.0779 114.4 22.1  0.1 109
2016 05 21  12 01 46.889   +14 35 36.34  .14167 1.0767 113.6 22.2  0.1 109
2016 05 22  12 00 13.844   +13 42 39.40  .14248 1.0756 112.8 22.2  0.1 108
2016 05 23  11 58 46.227   +12 49 46.53  .14332 1.0744 112.0 22.2  0.1 108
2016 05 24  11 57 23.841   +11 57 00.06  .14418 1.0732 111.2 22.3  0.1 107
2016 05 25  11 56 06.492   +11 04 22.10  .14506 1.0720 110.4 22.3  0.1 107
2016 05 26  11 54 53.997   +10 11 54.53  .14596 1.0707 109.5 22.3  0.1 107
2016 05 27  11 53 46.178   +09 19 39.04  .14688 1.0695 108.7 22.4  0.1 106
2016 05 28  11 52 42.866   +08 27 37.13  .14781 1.0682 107.9 22.4  0.1 106
2016 05 29  11 51 43.903   +07 35 50.11  .14876 1.0669 107.1 22.4  0.1 106
2016 05 30  11 50 49.137   +06 44 19.14  .14972 1.0656 106.3 22.5  0.1 106
2016 05 31  11 49 58.424   +05 53 05.21  .15069 1.0643 105.6 22.5  0.1 106
2016 06 01  11 49 11.628   +05 02 09.16  .15168 1.0629 104.8 22.5  0.1 105
2016 06 02  11 48 28.616   +04 11 31.72  .15267 1.0616 104.0 22.6  0.1 105
2016 06 03  11 47 49.255   +03 21 13.47  .15367 1.0602 103.2 22.6  0.2 105
2016 06 04  11 47 13.412   +02 31 14.92  .15468 1.0588 102.5 22.6  0.2 105
2016 06 05  11 46 40.946   +01 41 36.47  .15568 1.0574 101.7 22.7  0.2 105
2016 06 06  11 46 11.710   +00 52 18.46  .15669 1.0559 101.0 22.7  0.2 105
2016 06 07  11 45 45.548   +00 03 21.16  .15770 1.0545 100.2 22.7  0.2 105
